Location: Boiro
(42.6475°N, 8.8834°W)
Time: 00:03:17
(UTC+01:00)

Tiros 1 - Pass Details

Date: 02 December 2021
Orbit: 629 x 664 km, 48.4° (Epoch: 26 January)

Event Time Altitude Azimuth Distance (km) Brightness Sun altitude
Rises 20:33:29 0° 231° (SW) 2,912 11.3 -27.0°
Reaches altitude 10° 20:35:48 10° 228° (SW) 2,011 10.3 -27.5°
Enters shadow 20:38:53 40° 210° (SSW) 941 8.1 -28.0°
